Torna al catalogo

ATLAS D R/B

AttivoLEO
NORAD 2328·ROCKET BODY·🇺🇸 United States

Lanciato Jul 14, 1966 da Vandenberg Space Force Base

Loading…

Prossimi Passaggi (prossime 24 ore)

TLE

AggiornatoSource: Space-Track

Epoca: Sep 14, 2026, 23:07 UTC

1 02328U 66063C   26257.96341550  .00000258  00000-0  12170-4 0  9991
2 02328 144.2312 113.9435 0009202  70.4182  43.2544 13.69987362 12576

Traccia ATLAS D R/B in tempo reale con AllMySat

Download on the App Store